Year,Month,Day,Hour,Minute,Value (Times are PST for temperature in C)
2013,09,16,00,00,13.10
2013,09,16,00,01,13.20
2013,09,16,00,02,13.20
2013,09,16,00,03,13.30
2013,09,16,00,04,13.30
2013,09,16,00,05,13.30
2013,09,16,00,06,13.30
2013,09,16,00,07,13.30
2013,09,16,00,08,13.20
2013,09,16,00,09,13.10
2013,09,16,00,10,13.00
2013,09,16,00,11,13.00
2013,09,16,00,12,12.90
2013,09,16,00,13,13.00
2013,09,16,00,14,13.00
2013,09,16,00,15,13.00
2013,09,16,00,16,13.10
2013,09,16,00,17,13.10
2013,09,16,00,18,13.10
2013,09,16,00,19,13.10
2013,09,16,00,20,13.20
2013,09,16,00,21,13.20
2013,09,16,00,22,13.20
2013,09,16,00,23,13.20
2013,09,16,00,24,13.20
2013,09,16,00,25,13.30
2013,09,16,00,26,13.30
2013,09,16,00,27,13.30
2013,09,16,00,28,13.30
2013,09,16,00,29,13.30
2013,09,16,00,30,13.30
2013,09,16,00,31,13.30
2013,09,16,00,32,13.30
2013,09,16,00,33,13.30
2013,09,16,00,34,13.30
2013,09,16,00,35,13.30
2013,09,16,00,36,13.30
2013,09,16,00,37,13.40
2013,09,16,00,38,13.40
2013,09,16,00,39,13.40
2013,09,16,00,40,13.40
2013,09,16,00,41,13.40
2013,09,16,00,42,13.40
2013,09,16,00,43,13.50
2013,09,16,00,44,13.50
2013,09,16,00,45,13.50
2013,09,16,00,46,13.50
2013,09,16,00,47,13.50
2013,09,16,00,48,13.60
2013,09,16,00,49,13.60
2013,09,16,00,50,13.60
2013,09,16,00,51,13.70
2013,09,16,00,52,13.70
2013,09,16,00,53,13.70
2013,09,16,00,54,13.70
2013,09,16,00,55,13.70
2013,09,16,00,56,13.90
2013,09,16,00,57,13.90
2013,09,16,00,58,14.00
2013,09,16,00,59,14.00
2013,09,16,01,00,14.10
2013,09,16,01,01,14.10
2013,09,16,01,02,14.20
2013,09,16,01,03,14.20
2013,09,16,01,04,14.30
2013,09,16,01,05,14.40
2013,09,16,01,06,14.50
2013,09,16,01,07,14.50
2013,09,16,01,08,14.60
2013,09,16,01,09,14.70
2013,09,16,01,10,14.80
2013,09,16,01,11,14.90
2013,09,16,01,12,14.90
2013,09,16,01,13,15.00
2013,09,16,01,14,15.10
2013,09,16,01,15,15.10
2013,09,16,01,16,15.20
2013,09,16,01,17,15.30
2013,09,16,01,18,15.30
2013,09,16,01,19,15.40
2013,09,16,01,20,15.50
2013,09,16,01,21,15.50
2013,09,16,01,22,15.60
2013,09,16,01,23,15.60
2013,09,16,01,24,15.70
2013,09,16,01,25,15.70
2013,09,16,01,26,15.80
2013,09,16,01,27,15.80
2013,09,16,01,28,15.80
2013,09,16,01,29,15.80
2013,09,16,01,30,15.90
2013,09,16,01,31,15.90
2013,09,16,01,32,16.00
2013,09,16,01,33,16.10
2013,09,16,01,34,16.10
2013,09,16,01,35,16.10
2013,09,16,01,36,16.20
2013,09,16,01,37,16.20
2013,09,16,01,38,16.20
2013,09,16,01,39,16.20
2013,09,16,01,40,16.30
2013,09,16,01,41,16.30
2013,09,16,01,42,16.30
2013,09,16,01,43,16.40
2013,09,16,01,44,16.40
2013,09,16,01,45,16.40
2013,09,16,01,46,16.40
2013,09,16,01,47,16.40
2013,09,16,01,48,16.40
2013,09,16,01,49,16.40
2013,09,16,01,50,16.40
2013,09,16,01,51,16.40
2013,09,16,01,52,16.40
2013,09,16,01,53,16.40
2013,09,16,01,54,16.60
2013,09,16,01,55,16.60
2013,09,16,01,56,16.60
2013,09,16,01,57,16.60
2013,09,16,01,58,16.60
2013,09,16,01,59,16.60
2013,09,16,02,00,16.70
2013,09,16,02,01,16.70
2013,09,16,02,02,16.70
2013,09,16,02,03,16.70
2013,09,16,02,04,16.70
2013,09,16,02,05,16.70
2013,09,16,02,06,16.70
2013,09,16,02,07,16.70
2013,09,16,02,08,16.70
2013,09,16,02,09,16.70
2013,09,16,02,10,16.70
2013,09,16,02,11,16.70
2013,09,16,02,12,16.70
2013,09,16,02,13,16.70
2013,09,16,02,14,16.70
2013,09,16,02,15,16.80
2013,09,16,02,16,16.80
2013,09,16,02,17,16.80
2013,09,16,02,18,16.80
2013,09,16,02,19,16.90
2013,09,16,02,20,16.90
2013,09,16,02,21,16.90
2013,09,16,02,22,16.90
2013,09,16,02,23,16.90
2013,09,16,02,24,16.90
2013,09,16,02,25,16.90
2013,09,16,02,26,17.00
2013,09,16,02,27,16.90
2013,09,16,02,28,16.90
2013,09,16,02,29,16.90
2013,09,16,02,30,16.90
2013,09,16,02,31,16.90
2013,09,16,02,32,16.90
2013,09,16,02,33,16.90
2013,09,16,02,34,16.90
2013,09,16,02,35,16.90
2013,09,16,02,36,16.90
2013,09,16,02,37,16.90
2013,09,16,02,38,16.90
2013,09,16,02,39,16.90
2013,09,16,02,40,16.90
2013,09,16,02,41,16.90
2013,09,16,02,42,16.90
2013,09,16,02,43,16.90
2013,09,16,02,44,16.90
2013,09,16,02,45,16.90
2013,09,16,02,46,16.90
2013,09,16,02,47,16.90
2013,09,16,02,48,16.90
2013,09,16,02,49,16.90
2013,09,16,02,50,16.90
2013,09,16,02,51,16.90
2013,09,16,02,52,16.90
2013,09,16,02,53,16.90
2013,09,16,02,54,17.00
2013,09,16,02,55,17.00
2013,09,16,02,56,16.90
2013,09,16,02,57,16.90
2013,09,16,02,58,16.90
2013,09,16,02,59,16.90
2013,09,16,03,00,16.90
2013,09,16,03,01,16.90
2013,09,16,03,02,16.90
2013,09,16,03,03,16.90
2013,09,16,03,04,16.90
2013,09,16,03,05,16.90
2013,09,16,03,06,16.90
2013,09,16,03,07,16.90
2013,09,16,03,08,16.90
2013,09,16,03,09,17.00
2013,09,16,03,10,17.00
2013,09,16,03,11,17.00
2013,09,16,03,12,17.00
2013,09,16,03,13,17.00
2013,09,16,03,14,17.00
2013,09,16,03,15,17.00
2013,09,16,03,16,17.00
2013,09,16,03,17,17.00
2013,09,16,03,18,17.00
2013,09,16,03,19,17.00
2013,09,16,03,20,17.00
2013,09,16,03,21,17.00
2013,09,16,03,22,17.00
2013,09,16,03,23,17.00
2013,09,16,03,24,17.00
2013,09,16,03,25,17.00
2013,09,16,03,26,17.00
2013,09,16,03,27,17.00
2013,09,16,03,28,17.00
2013,09,16,03,29,17.00
2013,09,16,03,30,17.00
2013,09,16,03,31,16.90
2013,09,16,03,32,16.90
2013,09,16,03,33,16.90
2013,09,16,03,34,16.90
2013,09,16,03,35,16.90
2013,09,16,03,36,16.90
2013,09,16,03,37,16.90
2013,09,16,03,38,16.90
2013,09,16,03,39,16.90
2013,09,16,03,40,16.90
2013,09,16,03,41,16.90
2013,09,16,03,42,16.80
2013,09,16,03,43,16.80
2013,09,16,03,44,16.80
2013,09,16,03,45,16.80
2013,09,16,03,46,16.80
2013,09,16,03,47,16.80
2013,09,16,03,48,16.80
2013,09,16,03,49,16.80
2013,09,16,03,50,16.80
2013,09,16,03,51,16.80
2013,09,16,03,52,16.80
2013,09,16,03,53,16.80
2013,09,16,03,54,16.80
2013,09,16,03,55,16.80
2013,09,16,03,56,16.70
2013,09,16,03,57,16.70
2013,09,16,03,58,16.70
2013,09,16,03,59,16.70
2013,09,16,04,00,16.70
2013,09,16,04,01,16.70
2013,09,16,04,02,16.70
2013,09,16,04,03,16.70
2013,09,16,04,04,16.70
2013,09,16,04,05,16.70
2013,09,16,04,06,16.70
2013,09,16,04,07,16.70
2013,09,16,04,08,16.70
2013,09,16,04,09,16.70
2013,09,16,04,10,16.70
2013,09,16,04,11,16.70
2013,09,16,04,12,16.70
2013,09,16,04,13,16.70
2013,09,16,04,14,16.70
2013,09,16,04,15,16.70
2013,09,16,04,16,16.70
2013,09,16,04,17,16.70
2013,09,16,04,18,16.70
2013,09,16,04,19,16.70
2013,09,16,04,20,16.70
2013,09,16,04,21,16.70
2013,09,16,04,22,16.70
2013,09,16,04,23,16.70
2013,09,16,04,24,16.60
2013,09,16,04,25,16.60
2013,09,16,04,26,16.60
2013,09,16,04,27,16.60
2013,09,16,04,28,16.60
2013,09,16,04,29,16.60
2013,09,16,04,30,16.60
2013,09,16,04,31,16.60
2013,09,16,04,32,16.50
2013,09,16,04,33,16.40
2013,09,16,04,34,16.40
2013,09,16,04,35,16.40
2013,09,16,04,36,16.40
2013,09,16,04,37,16.40
2013,09,16,04,38,16.40
2013,09,16,04,39,16.40
2013,09,16,04,40,16.40
2013,09,16,04,41,16.40
2013,09,16,04,42,16.40
2013,09,16,04,43,16.40
2013,09,16,04,44,16.40
2013,09,16,04,45,16.40
2013,09,16,04,46,16.40
2013,09,16,04,47,16.40
2013,09,16,04,48,16.40
2013,09,16,04,49,16.40
2013,09,16,04,50,16.40
2013,09,16,04,51,16.40
2013,09,16,04,52,16.40
2013,09,16,04,53,16.40
2013,09,16,04,54,16.40
2013,09,16,04,55,16.40
2013,09,16,04,56,16.40
2013,09,16,04,57,16.40
2013,09,16,04,58,16.40
2013,09,16,04,59,16.40
2013,09,16,05,00,16.40
2013,09,16,05,01,16.40
2013,09,16,05,02,16.40
2013,09,16,05,03,16.40
2013,09,16,05,04,16.40
2013,09,16,05,05,16.40
2013,09,16,05,06,16.40
2013,09,16,05,07,16.40
2013,09,16,05,08,16.40
2013,09,16,05,09,16.40
2013,09,16,05,10,16.40
2013,09,16,05,11,16.40
2013,09,16,05,12,16.40
2013,09,16,05,13,16.40
2013,09,16,05,14,16.40
2013,09,16,05,15,16.30
2013,09,16,05,16,16.30
2013,09,16,05,17,16.30
2013,09,16,05,18,16.30
2013,09,16,05,19,16.30
2013,09,16,05,20,16.30
2013,09,16,05,21,16.30
2013,09,16,05,22,16.40
2013,09,16,05,23,16.40
2013,09,16,05,24,16.40
2013,09,16,05,25,16.40
2013,09,16,05,26,16.40
2013,09,16,05,27,16.40
2013,09,16,05,28,16.40
2013,09,16,05,29,16.40
2013,09,16,05,30,16.40
2013,09,16,05,31,16.30
2013,09,16,05,32,16.30
2013,09,16,05,33,16.30
2013,09,16,05,34,16.30
2013,09,16,05,35,16.40
2013,09,16,05,36,16.40
2013,09,16,05,37,16.40
2013,09,16,05,38,16.40
2013,09,16,05,39,16.40
2013,09,16,05,40,16.40
2013,09,16,05,41,16.40
2013,09,16,05,42,16.40
2013,09,16,05,43,16.40
2013,09,16,05,44,16.30
2013,09,16,05,45,16.30
2013,09,16,05,46,16.30
2013,09,16,05,47,16.30
2013,09,16,05,48,16.30
2013,09,16,05,49,16.30
2013,09,16,05,50,16.30
2013,09,16,05,51,16.30
2013,09,16,05,52,16.30
2013,09,16,05,53,16.30
2013,09,16,05,54,16.30
2013,09,16,05,55,16.30
2013,09,16,05,56,16.30
2013,09,16,05,57,16.30
2013,09,16,05,58,16.30
2013,09,16,05,59,16.30
2013,09,16,06,00,16.30
2013,09,16,06,01,16.30
2013,09,16,06,02,16.30
2013,09,16,06,03,16.30
2013,09,16,06,04,16.30
2013,09,16,06,05,16.30
2013,09,16,06,06,16.40
2013,09,16,06,07,16.40
2013,09,16,06,08,16.40
2013,09,16,06,09,16.40
2013,09,16,06,10,16.40
2013,09,16,06,11,16.40
2013,09,16,06,12,16.40
2013,09,16,06,13,16.40
2013,09,16,06,14,16.40
2013,09,16,06,15,16.40
2013,09,16,06,16,16.40
2013,09,16,06,17,16.40
2013,09,16,06,18,16.40
2013,09,16,06,19,16.40
2013,09,16,06,20,16.50
2013,09,16,06,21,16.60
2013,09,16,06,22,16.60
2013,09,16,06,23,16.60
2013,09,16,06,24,16.70
2013,09,16,06,25,16.70
2013,09,16,06,26,16.70
2013,09,16,06,27,16.70
2013,09,16,06,28,16.60
2013,09,16,06,29,16.60
2013,09,16,06,30,16.60
2013,09,16,06,31,16.60
2013,09,16,06,32,16.50
2013,09,16,06,33,16.40
2013,09,16,06,34,16.40
2013,09,16,06,35,16.40
2013,09,16,06,36,16.40
2013,09,16,06,37,16.40
2013,09,16,06,38,16.40
2013,09,16,06,39,16.40
2013,09,16,06,40,16.30
2013,09,16,06,41,16.30
2013,09,16,06,42,16.30
2013,09,16,06,43,16.30
2013,09,16,06,44,16.30
2013,09,16,06,45,16.30
2013,09,16,06,46,16.30
2013,09,16,06,47,16.30
2013,09,16,06,48,16.30
2013,09,16,06,49,16.30
2013,09,16,06,50,16.30
2013,09,16,06,51,16.30
2013,09,16,06,52,16.40
2013,09,16,06,53,16.40
2013,09,16,06,54,16.40
2013,09,16,06,55,16.40
2013,09,16,06,56,16.40
2013,09,16,06,57,16.40
2013,09,16,06,58,16.40
2013,09,16,06,59,16.40
2013,09,16,07,00,16.40
2013,09,16,07,01,16.40
2013,09,16,07,02,16.40
2013,09,16,07,03,16.40
2013,09,16,07,04,16.40
2013,09,16,07,05,16.40
2013,09,16,07,06,16.40
2013,09,16,07,07,16.40
2013,09,16,07,08,16.40
2013,09,16,07,09,16.40
2013,09,16,07,10,16.40
2013,09,16,07,11,16.30
2013,09,16,07,12,16.30
2013,09,16,07,13,16.30
2013,09,16,07,14,16.30
2013,09,16,07,15,16.30
2013,09,16,07,16,16.30
2013,09,16,07,17,16.30
2013,09,16,07,18,16.20
2013,09,16,07,19,16.20
2013,09,16,07,20,16.20
2013,09,16,07,21,16.10
2013,09,16,07,22,16.10
2013,09,16,07,23,15.90
2013,09,16,07,24,15.70
2013,09,16,07,25,15.60
2013,09,16,07,26,15.50
2013,09,16,07,27,15.40
2013,09,16,07,28,15.30
2013,09,16,07,29,15.30
2013,09,16,07,30,15.30
2013,09,16,07,31,15.30
2013,09,16,07,32,15.30
2013,09,16,07,33,15.30
2013,09,16,07,34,15.30
2013,09,16,07,35,15.30
2013,09,16,07,36,15.30
2013,09,16,07,37,15.30
2013,09,16,07,38,15.30
2013,09,16,07,39,15.30
2013,09,16,07,40,15.30
2013,09,16,07,41,15.30
2013,09,16,07,42,15.30
2013,09,16,07,43,15.40
2013,09,16,07,44,15.50
2013,09,16,07,45,15.50
2013,09,16,07,46,15.50
2013,09,16,07,47,15.50
2013,09,16,07,48,15.50
2013,09,16,07,49,15.50
2013,09,16,07,50,15.50
2013,09,16,07,51,15.50
2013,09,16,07,52,15.50
2013,09,16,07,53,15.50
2013,09,16,07,54,15.50
2013,09,16,07,55,15.50
2013,09,16,07,56,15.30
2013,09,16,07,57,15.20
2013,09,16,07,58,15.10
2013,09,16,07,59,14.90
2013,09,16,08,00,14.70
2013,09,16,08,01,14.60
2013,09,16,08,02,14.40
2013,09,16,08,03,14.30
2013,09,16,08,04,14.20
2013,09,16,08,05,14.10
2013,09,16,08,06,14.00
2013,09,16,08,07,14.00
2013,09,16,08,08,13.90
2013,09,16,08,09,13.90
2013,09,16,08,10,13.90
2013,09,16,08,11,13.90
2013,09,16,08,12,13.90
2013,09,16,08,13,13.80
2013,09,16,08,14,13.80
2013,09,16,08,15,13.80
2013,09,16,08,16,13.80
2013,09,16,08,17,13.80
2013,09,16,08,18,13.80
2013,09,16,08,19,13.80
2013,09,16,08,20,13.80
2013,09,16,08,21,13.80
2013,09,16,08,22,13.80
2013,09,16,08,23,13.80
2013,09,16,08,24,13.90
2013,09,16,08,25,13.90
2013,09,16,08,26,13.90
2013,09,16,08,27,13.90
2013,09,16,08,28,13.90
2013,09,16,08,29,13.90
2013,09,16,08,30,13.90
2013,09,16,08,31,14.00
2013,09,16,08,32,14.00
2013,09,16,08,33,14.00
2013,09,16,08,34,14.00
2013,09,16,08,35,14.10
2013,09,16,08,36,14.10
2013,09,16,08,37,14.10
2013,09,16,08,38,14.10
2013,09,16,08,39,14.10
2013,09,16,08,40,14.10
2013,09,16,08,41,14.10
2013,09,16,08,42,14.10
2013,09,16,08,43,14.10
2013,09,16,08,44,14.10
2013,09,16,08,45,14.10
2013,09,16,08,46,14.10
2013,09,16,08,47,14.00
2013,09,16,08,48,14.00
2013,09,16,08,49,13.90
2013,09,16,08,50,13.90
2013,09,16,08,51,13.80
2013,09,16,08,52,13.80
2013,09,16,08,53,13.80
2013,09,16,08,54,13.80
2013,09,16,08,55,13.80
2013,09,16,08,56,13.80
2013,09,16,08,57,13.80
2013,09,16,08,58,13.80
2013,09,16,08,59,13.80
2013,09,16,09,00,13.80
2013,09,16,09,01,13.80
2013,09,16,09,02,13.80
2013,09,16,09,03,13.80
2013,09,16,09,04,13.80
2013,09,16,09,05,13.80
2013,09,16,09,06,13.90
2013,09,16,09,07,13.90
2013,09,16,09,08,13.90
2013,09,16,09,09,13.90
2013,09,16,09,10,13.90
2013,09,16,09,11,13.90
2013,09,16,09,12,14.00
2013,09,16,09,13,14.00
2013,09,16,09,14,14.00
2013,09,16,09,15,14.00
2013,09,16,09,16,14.00
2013,09,16,09,17,14.00
2013,09,16,09,18,14.00
2013,09,16,09,19,14.00
2013,09,16,09,20,14.10
2013,09,16,09,21,14.10
2013,09,16,09,22,14.10
2013,09,16,09,23,14.10
2013,09,16,09,24,14.10
2013,09,16,09,25,14.10
2013,09,16,09,26,14.10
2013,09,16,09,27,14.10
2013,09,16,09,28,14.10
2013,09,16,09,29,14.10
2013,09,16,09,30,14.10
2013,09,16,09,31,14.10
2013,09,16,09,32,14.10
2013,09,16,09,33,14.10
2013,09,16,09,34,14.10
2013,09,16,09,35,14.10
2013,09,16,09,36,14.00
2013,09,16,09,37,14.00
2013,09,16,09,38,13.90
2013,09,16,09,39,13.90
2013,09,16,09,40,13.90
2013,09,16,09,41,13.90
2013,09,16,09,42,13.90
2013,09,16,09,43,13.90
2013,09,16,09,44,13.90
2013,09,16,09,45,13.90
2013,09,16,09,46,13.90
2013,09,16,09,47,13.80
2013,09,16,09,48,13.80
2013,09,16,09,49,13.80
2013,09,16,09,50,13.80
2013,09,16,09,51,13.70
2013,09,16,09,52,13.70
2013,09,16,09,53,13.70
2013,09,16,09,54,13.70
2013,09,16,09,55,13.60
2013,09,16,09,56,13.60
2013,09,16,09,57,13.60
2013,09,16,09,58,13.60
2013,09,16,09,59,13.60
2013,09,16,10,00,13.60
2013,09,16,10,01,13.60
2013,09,16,10,02,13.60
2013,09,16,10,03,13.60
2013,09,16,10,04,13.60
2013,09,16,10,05,13.70
2013,09,16,10,06,13.70
2013,09,16,10,07,13.70
2013,09,16,10,08,13.70
2013,09,16,10,09,13.70
2013,09,16,10,10,13.70
2013,09,16,10,11,13.70
2013,09,16,10,12,13.70
2013,09,16,10,13,13.70
2013,09,16,10,14,13.70
2013,09,16,10,15,13.80
2013,09,16,10,16,13.90
2013,09,16,10,17,13.90
2013,09,16,10,18,13.90
2013,09,16,10,19,13.90
2013,09,16,10,20,13.90
2013,09,16,10,21,13.90
2013,09,16,10,22,13.80
2013,09,16,10,23,13.80
2013,09,16,10,24,13.80
2013,09,16,10,25,13.80
2013,09,16,10,26,13.80
2013,09,16,10,27,13.80
2013,09,16,10,28,13.80
2013,09,16,10,29,13.80
2013,09,16,10,30,13.80
2013,09,16,10,31,13.80
2013,09,16,10,32,13.80
2013,09,16,10,33,13.90
2013,09,16,10,34,13.90
2013,09,16,10,35,13.90
2013,09,16,10,36,13.90
2013,09,16,10,37,13.90
2013,09,16,10,38,13.90
2013,09,16,10,39,13.90
2013,09,16,10,40,13.90
2013,09,16,10,41,13.90
2013,09,16,10,42,13.90
2013,09,16,10,43,13.90
2013,09,16,10,44,14.00
2013,09,16,10,45,14.00
2013,09,16,10,46,13.90
2013,09,16,10,47,13.90
2013,09,16,10,48,13.90
2013,09,16,10,49,13.80
2013,09,16,10,50,13.80
2013,09,16,10,51,13.80
2013,09,16,10,52,13.80
2013,09,16,10,53,13.80
2013,09,16,10,54,13.80
2013,09,16,10,55,13.70
2013,09,16,10,56,13.70
2013,09,16,10,57,13.70
2013,09,16,10,58,13.70
2013,09,16,10,59,13.70
2013,09,16,11,00,13.80
2013,09,16,11,01,13.90
2013,09,16,11,02,13.90
2013,09,16,11,03,13.90
2013,09,16,11,04,14.00
2013,09,16,11,05,14.00
2013,09,16,11,06,13.90
2013,09,16,11,07,13.90
2013,09,16,11,08,14.00
2013,09,16,11,09,14.00
2013,09,16,11,10,14.00
2013,09,16,11,11,14.00
2013,09,16,11,12,14.00
2013,09,16,11,13,14.00
2013,09,16,11,14,14.00
2013,09,16,11,15,14.10
2013,09,16,11,16,14.10
2013,09,16,11,17,14.20
2013,09,16,11,18,14.20
2013,09,16,11,19,14.20
2013,09,16,11,20,14.30
2013,09,16,11,21,14.40
2013,09,16,11,22,14.50
2013,09,16,11,23,14.70
2013,09,16,11,24,14.80
2013,09,16,11,25,15.00
2013,09,16,11,26,15.10
2013,09,16,11,27,15.20
2013,09,16,11,28,15.30
2013,09,16,11,29,15.30
2013,09,16,11,30,15.40
2013,09,16,11,31,15.50
2013,09,16,11,32,15.60
2013,09,16,11,33,15.70
2013,09,16,11,34,15.70
2013,09,16,11,35,15.80
2013,09,16,11,36,15.80
2013,09,16,11,37,15.80
2013,09,16,11,38,15.80
2013,09,16,11,39,15.80
2013,09,16,11,40,15.80
2013,09,16,11,41,15.90
2013,09,16,11,42,16.00
2013,09,16,11,43,16.10
2013,09,16,11,44,16.20
2013,09,16,11,45,16.30
2013,09,16,11,46,16.30
2013,09,16,11,47,16.40
2013,09,16,11,48,16.40
2013,09,16,11,49,16.40
2013,09,16,11,50,16.50
2013,09,16,11,51,16.60
2013,09,16,11,52,16.60
2013,09,16,11,53,16.70
2013,09,16,11,54,16.70
2013,09,16,11,55,16.80
2013,09,16,11,56,16.80
2013,09,16,11,57,16.90
2013,09,16,11,58,16.90
2013,09,16,11,59,17.00
2013,09,16,12,00,17.00
2013,09,16,12,01,17.00
2013,09,16,12,02,17.10
2013,09,16,12,03,17.10
2013,09,16,12,04,17.20
2013,09,16,12,05,17.20
2013,09,16,12,06,17.20
2013,09,16,12,07,17.20
2013,09,16,12,08,17.30
2013,09,16,12,09,17.30
2013,09,16,12,10,17.30
2013,09,16,12,11,17.40
2013,09,16,12,12,17.40
2013,09,16,12,13,17.40
2013,09,16,12,14,17.40
2013,09,16,12,15,17.40
2013,09,16,12,16,17.40
2013,09,16,12,17,17.40
2013,09,16,12,18,17.40
2013,09,16,12,19,17.40
2013,09,16,12,20,17.40
2013,09,16,12,21,17.40
2013,09,16,12,22,17.40
2013,09,16,12,23,17.40
2013,09,16,12,24,17.50
2013,09,16,12,25,17.50
2013,09,16,12,26,17.50
2013,09,16,12,27,17.60
2013,09,16,12,28,17.60
2013,09,16,12,29,17.70
2013,09,16,12,30,17.70
2013,09,16,12,31,17.70
2013,09,16,12,32,17.80
2013,09,16,12,33,17.80
2013,09,16,12,34,17.90
2013,09,16,12,35,17.90
2013,09,16,12,36,17.90
2013,09,16,12,37,18.00
2013,09,16,12,38,18.10
2013,09,16,12,39,18.10
2013,09,16,12,40,18.20
2013,09,16,12,41,18.20
2013,09,16,12,42,18.20
2013,09,16,12,43,18.20
2013,09,16,12,44,18.20
2013,09,16,12,45,18.20
2013,09,16,12,46,18.30
2013,09,16,12,47,18.40
2013,09,16,12,48,18.40
2013,09,16,12,49,18.50
2013,09,16,12,50,18.60
2013,09,16,12,51,18.60
2013,09,16,12,52,18.70
2013,09,16,12,53,18.80
2013,09,16,12,54,18.90
2013,09,16,12,55,19.00
2013,09,16,12,56,19.10
2013,09,16,12,57,19.00
2013,09,16,12,58,18.90
2013,09,16,12,59,18.90
2013,09,16,13,00,19.00
2013,09,16,13,01,19.10
2013,09,16,13,02,19.10
2013,09,16,13,03,19.10
2013,09,16,13,04,19.10
2013,09,16,13,05,19.10
2013,09,16,13,06,19.20
2013,09,16,13,07,19.30
2013,09,16,13,08,19.20
2013,09,16,13,09,19.20
2013,09,16,13,10,19.10
2013,09,16,13,11,19.10
2013,09,16,13,12,19.10
2013,09,16,13,13,19.00
2013,09,16,13,14,18.90
2013,09,16,13,15,18.90
2013,09,16,13,16,18.90
2013,09,16,13,17,18.90
2013,09,16,13,18,18.90
2013,09,16,13,19,18.90
2013,09,16,13,20,18.90
2013,09,16,13,21,19.00
2013,09,16,13,22,19.10
2013,09,16,13,23,19.20
2013,09,16,13,24,19.30
2013,09,16,13,25,19.30
2013,09,16,13,26,19.40
2013,09,16,13,27,19.50
2013,09,16,13,28,19.50
2013,09,16,13,29,19.50
2013,09,16,13,30,19.40
2013,09,16,13,31,19.30
2013,09,16,13,32,19.20
2013,09,16,13,33,19.20
2013,09,16,13,34,19.10
2013,09,16,13,35,19.10
2013,09,16,13,36,19.00
2013,09,16,13,37,18.90
2013,09,16,13,38,18.90
2013,09,16,13,39,18.80
2013,09,16,13,40,18.80
2013,09,16,13,41,18.70
2013,09,16,13,42,18.70
2013,09,16,13,43,18.70
2013,09,16,13,44,18.60
2013,09,16,13,45,18.60
2013,09,16,13,46,18.60
2013,09,16,13,47,18.60
2013,09,16,13,48,18.60
2013,09,16,13,49,18.60
2013,09,16,13,50,18.60
2013,09,16,13,51,18.60
2013,09,16,13,52,18.60
2013,09,16,13,53,18.60
2013,09,16,13,54,18.60
2013,09,16,13,55,18.70
2013,09,16,13,56,18.70
2013,09,16,13,57,18.70
2013,09,16,13,58,18.80
2013,09,16,13,59,18.80
2013,09,16,14,00,18.80
2013,09,16,14,01,18.80
2013,09,16,14,02,18.80
2013,09,16,14,03,18.90
2013,09,16,14,04,18.90
2013,09,16,14,05,18.90
2013,09,16,14,06,18.90
2013,09,16,14,07,18.90
2013,09,16,14,08,18.90
2013,09,16,14,09,18.90
2013,09,16,14,10,18.90
2013,09,16,14,11,18.90
2013,09,16,14,12,18.90
2013,09,16,14,13,19.00
2013,09,16,14,14,19.10
2013,09,16,14,15,19.10
2013,09,16,14,16,19.20
2013,09,16,14,17,19.30
2013,09,16,14,18,19.40
2013,09,16,14,19,19.40
2013,09,16,14,20,19.40
2013,09,16,14,21,19.50
2013,09,16,14,22,19.50
2013,09,16,14,23,19.50
2013,09,16,14,24,19.50
2013,09,16,14,25,19.50
2013,09,16,14,26,19.40
2013,09,16,14,27,19.40
2013,09,16,14,28,19.40
2013,09,16,14,29,19.40
2013,09,16,14,30,19.40
2013,09,16,14,31,19.30
2013,09,16,14,32,19.30
2013,09,16,14,33,19.20
2013,09,16,14,34,19.10
2013,09,16,14,35,19.00
2013,09,16,14,36,18.90
2013,09,16,14,37,18.90
2013,09,16,14,38,18.90
2013,09,16,14,39,18.90
2013,09,16,14,40,18.90
2013,09,16,14,41,18.80
2013,09,16,14,42,18.90
2013,09,16,14,43,18.90
2013,09,16,14,44,18.80
2013,09,16,14,45,18.80
2013,09,16,14,46,18.80
2013,09,16,14,47,18.80
2013,09,16,14,48,18.80
2013,09,16,14,49,18.70
2013,09,16,14,50,18.70
2013,09,16,14,51,18.70
2013,09,16,14,52,18.70
2013,09,16,14,53,18.70
2013,09,16,14,54,18.70
2013,09,16,14,55,18.80
2013,09,16,14,56,18.80
2013,09,16,14,57,18.90
2013,09,16,14,58,18.90
2013,09,16,14,59,19.00
2013,09,16,15,00,19.10
2013,09,16,15,01,19.10
2013,09,16,15,02,19.10
2013,09,16,15,03,19.10
2013,09,16,15,04,19.10
2013,09,16,15,05,19.10
2013,09,16,15,06,19.00
2013,09,16,15,07,18.90
2013,09,16,15,08,18.90
2013,09,16,15,09,18.80
2013,09,16,15,10,18.80
2013,09,16,15,11,18.80
2013,09,16,15,12,18.80
2013,09,16,15,13,18.80
2013,09,16,15,14,18.80
2013,09,16,15,15,18.80
2013,09,16,15,16,18.80
2013,09,16,15,17,18.80
2013,09,16,15,18,18.80
2013,09,16,15,19,18.80
2013,09,16,15,20,18.80
2013,09,16,15,21,18.80
2013,09,16,15,22,18.80
2013,09,16,15,23,18.80
2013,09,16,15,24,18.80
2013,09,16,15,25,18.80
2013,09,16,15,26,18.70
2013,09,16,15,27,18.70
2013,09,16,15,28,18.70
2013,09,16,15,29,18.70
2013,09,16,15,30,18.70
2013,09,16,15,31,18.60
2013,09,16,15,32,18.60
2013,09,16,15,33,18.60
2013,09,16,15,34,18.50
2013,09,16,15,35,18.50
2013,09,16,15,36,18.50
2013,09,16,15,37,18.40
2013,09,16,15,38,18.30
2013,09,16,15,39,18.30
2013,09,16,15,40,18.20
2013,09,16,15,41,18.20
2013,09,16,15,42,18.20
2013,09,16,15,43,18.20
2013,09,16,15,44,18.20
2013,09,16,15,45,18.30
2013,09,16,15,46,18.30
2013,09,16,15,47,18.30
2013,09,16,15,48,18.30
2013,09,16,15,49,18.30
2013,09,16,15,50,18.20
2013,09,16,15,51,18.20
2013,09,16,15,52,18.20
2013,09,16,15,53,18.20
2013,09,16,15,54,18.20
2013,09,16,15,55,18.20
2013,09,16,15,56,18.20
2013,09,16,15,57,18.20
2013,09,16,15,58,18.10
2013,09,16,15,59,18.10
2013,09,16,16,00,17.90
2013,09,16,16,01,17.90
2013,09,16,16,02,17.90
2013,09,16,16,03,17.90
2013,09,16,16,04,17.90
2013,09,16,16,05,17.90
2013,09,16,16,06,17.90
2013,09,16,16,07,17.90
2013,09,16,16,08,17.90
2013,09,16,16,09,17.90
2013,09,16,16,10,17.90
2013,09,16,16,11,17.80
2013,09,16,16,12,17.80
2013,09,16,16,13,17.70
2013,09,16,16,14,17.70
2013,09,16,16,15,17.70
2013,09,16,16,16,17.70
2013,09,16,16,17,17.80
2013,09,16,16,18,17.80
2013,09,16,16,19,17.90
2013,09,16,16,20,17.90
2013,09,16,16,21,17.90
2013,09,16,16,22,17.90
2013,09,16,16,23,17.90
2013,09,16,16,24,17.90
2013,09,16,16,25,17.90
2013,09,16,16,26,17.90
2013,09,16,16,27,17.90
2013,09,16,16,28,17.90
2013,09,16,16,29,17.90
2013,09,16,16,30,17.90
2013,09,16,16,31,17.90
2013,09,16,16,32,17.80
2013,09,16,16,33,17.80
2013,09,16,16,34,17.70
2013,09,16,16,35,17.70
2013,09,16,16,36,17.70
2013,09,16,16,37,17.70
2013,09,16,16,38,17.70
2013,09,16,16,39,17.70
2013,09,16,16,40,17.60
2013,09,16,16,41,17.60
2013,09,16,16,42,17.60
2013,09,16,16,43,17.50
2013,09,16,16,44,17.50
2013,09,16,16,45,17.50
2013,09,16,16,46,17.50
2013,09,16,16,47,17.50
2013,09,16,16,48,17.50
2013,09,16,16,49,17.40
2013,09,16,16,50,17.40
2013,09,16,16,51,17.40
2013,09,16,16,52,17.40
2013,09,16,16,53,17.50
2013,09,16,16,54,17.50
2013,09,16,16,55,17.50
2013,09,16,16,56,17.50
2013,09,16,16,57,17.50
2013,09,16,16,58,17.50
2013,09,16,16,59,17.50
2013,09,16,17,00,17.50
2013,09,16,17,01,17.50
2013,09,16,17,02,17.50
2013,09,16,17,03,17.50
2013,09,16,17,04,17.50
2013,09,16,17,05,17.50
2013,09,16,17,06,17.40
2013,09,16,17,07,17.40
2013,09,16,17,08,17.40
2013,09,16,17,09,17.40
2013,09,16,17,10,17.30
2013,09,16,17,11,17.30
2013,09,16,17,12,17.30
2013,09,16,17,13,17.30
2013,09,16,17,14,17.30
2013,09,16,17,15,17.30
2013,09,16,17,16,17.30
2013,09,16,17,17,17.20
2013,09,16,17,18,17.20
2013,09,16,17,19,17.20